World > North America > United States > Mississippi

Hourly Pine Flat, MS Regional Weather

Feedback E-mail the Weather

Quick WX

Pine Flat, MS Weather Maps

°F °C°F °C
Pine Flat Weather Map
UTC Time: 7/2/2022, 02:01
Your Time:

Pine Flat, MS Regional Weather

Expires:202207020200;;523430
ASUS44 KJAN 020110
RWRMS 

MISSISSIPPI HOURLY WEATHER ROUNDUP
NATIONAL WEATHER SERVICE JACKSON MS
800 PM CDT FRI JUL 01 2022

NOTE: "FAIR: INDICATES FEW OR NO CLOUDS BELOW 12,000 FEET WITH NO
SIGNIFICANT WEATHER AND/OR OBSTRUCTIONS TO VISIBILITY.


MSZ001>002-007>008-010>013-018>021-025>028-034>036-020200-
NORTHWEST MISSISSIPPI
  
CITY           SKY/WX    TMP DP  RH WIND       PRES   REMARKS
BATESVILLE     FAIR      79  72  78 SW6G14    29.99R                  
CLARKSDALE     CLEAR     84  75  74 S6        29.98R HX  92           
CLEVELAND      FAIR      81  72  76 S5        29.98R                  
GREENWOOD      PTCLDY    80  72  76 S7        30.01R                  
GREENVILLE     CLEAR     78  72  81 S6        29.98R                  
OLIVE BRANCH   MOCLDY    86  73  66 S7        29.97R HX  93           
OXFORD         MOCLDY    84  70  61 S9        30.01R                  
TUNICA         MOCLDY    83  73  70 S8        29.97R                  
WINONA         DRIZZLE   73  72  96 S6        30.02F                  
$$


SKY/WX - Weather  TMP - Temperature  DP - Dew Point  RH - Humidity
WIND - Wind Direction/Speed PRES - Barometric Pressure VSB - Visibility
WCI - Wind Chill Index E13G22 Wind - East Wind 13 mph/Gusts of 22 mph

Trending Headlines

Pine Flat Radar Loop



Pine Flat Quick Facts


National Two Day Weather Forecast


E-mail the Pine Flat Weather Forecast

Voice your opinion or tell us about page issues...